{"data":{"norad_id":56388,"epoch":"2026-05-24T23:39:34.180128Z","epoch_age_seconds":90461,"freshness":"FRESH","line1":"1 56388U 23061Q   26144.98581227 -.00000018  00000+0  88392-5 0  9995","line2":"2 56388  43.0015 127.3856 0000241 260.4275  99.6549 15.27575067168417","mean_motion":15.27575067,"eccentricity":2.41e-5,"inclination_deg":43.0015,"raan_deg":127.3856,"arg_perigee_deg":260.4275,"mean_anomaly_deg":99.6549,"bstar":8.8392e-6,"rev_number":16841,"period_min":94.267053129377,"perigee_km":482.89851231514,"apogee_km":483.22922219694,"semimajor_km":6861.200867256,"source":"CELESTRAK","updated_at":"2026-05-25T13:38:18.013260Z"}}